Location: Capel Gartheli
(52.1833°N, 4.0667°W)
Time: 04:43:08
(UTC+00:00)

STARLINK-1169 - Pass Details

Date: 18 February 2020
Orbit: 553 x 556 km, 53.0° (Epoch: 02 April)

Event Time Altitude Azimuth Distance (km) Brightness Sun altitude
Exits shadow 05:32:01 41° 283° (WNW) 829 4.0 -18.2°
Maximum altitude 05:33:26 79° 3° (N) 583 3.6 -18.0°
Drops below altitude 10° 05:37:42 10° 91° (E) 1,869 7.6 -17.3°
Sets 05:39:58 0° 92° (E) 2,768 9.0 -17.0°
